Location: Helsinki
(60.1699°N, 24.9384°E)
Time: 23:37:47
(UTC+02:00)

A-11 Canister half - Pass Details

Date: 04 November 2020
Orbit: 1516 x 1684 km, 47.2° (Epoch: 26 November)

Event Time Altitude Azimuth Distance (km) Brightness Sun altitude
Rises 00:30:39 0° 275° (W) 4,915 11.6 -45.0°
Enters shadow 00:31:07 - 274° (W) 4,787 11.5 -45.0°
Reaches altitude 10° 00:34:32 10° 264° (W) 3,906 - -44.9°
Maximum altitude 00:42:01 25° 214° (SW) 2,841 - -44.7°
Drops below altitude 10° 00:49:20 10° 164° (SSE) 3,799 - -44.5°
Sets 00:53:04 0° 152° (SSE) 4,754 - -44.4°
